Погода в Кропоткине

Россия / Краснодарский край     45°26′04″N   40°34′33″E
темп.,
°C
ветер,
м/с
пор.,
м/с
влажн.,
%
обл.,
%
осадки,
мм/ч
давл.,
гПа
погр.,
м
2 декабря, чт
чт200:00+5зюз7128692 1.4 1009923
03:00+4з5118369 1.8 1011877
06:00+4з5118257 0.1 1014507
09:00+4юз498115 0.1 1017436
12:00+7з710605 0.0 10181109
15:00+8з510605 0.0 10181300
18:00+6ююз34745 0.0 101975
21:00+5ююз38865 0.0 1019196
3 декабря, пт
пт300:00+4ююв36855 0.0 1019121
03:00+3ююв357781 0.0 101994
06:00+3ююв3474100 0.0 101960
09:00+4ююв3571100 0.0 1019107
12:00+8ююв235388 0.0 1018223
15:00+10юв245129 0.0 1018213
18:00+7ююв33611 0.0 101830
21:00+6ююв34645 0.0 101846
4 декабря, сб
сб400:00+5ю465860 0.0 101871
03:00+6ю3658100 0.0 101896
06:00+6ю465954 0.0 101770
09:00+7ю365479 0.0 1017100
12:00+12ю3743100 0.0 1016220
15:00+12ююв334699 0.0 101554
18:00+10всв115096 0.0 101510
21:00+9вюв2255100 0.0 101415
5 декабря, вс
вс500:00+8юв1156100 0.0 101310
03:00+9зсз1152100 0.0 101410
06:00+9юз1154100 0.0 101410
09:00+9ююв2358100 0.0 101438
12:00+11ю1253100 0.0 1014183
15:00+11юв1156100 0.0 101429
18:00+9всв1160100 0.0 101612
21:00+9юв226073 0.0 101622
6 декабря, пн
пн600:00+9юв3356100 0.0 101738
03:00+9юв4851100 0.0 1017119
06:00+8ю3455100 0.0 101870
09:00+9юв355889 0.0 1019107
12:00+12юв335168 0.0 1019246
15:00+13вюв345134 0.0 1019231
18:00+10вюв3458100 0.0 102047
21:00+9юв3557100 0.0 102169